Rbgn^[z[y[W
メイン
   新天体発見情報
     Comet C/2021 X1 (Maury-Attard)
投稿するにはまず登録を

スレッド表示 | 新しいものから 前のトピック | 次のトピック | 下へ
投稿者 スレッド
佐藤裕久
投稿日時: 2022-5-18 12:29
モデレータ
登録日: 2005-6-12
居住地: 日本
投稿: 2424
オンライン
Comet C/2021 X1 (Maury-Attard)

Alain Mauryの通報によると、Georges Attard (Mougins, フランス)と彼は、2021年12月2日、チリの
San Pedro de Atacamaにある "Maury, Attard, Parrott" (MAP)サーベイプロジェクトのコースに、
0.28-m f/2.2 Schmidt反射望遠鏡で得た「少しぼんやり」した画像から彗星を発見した。
この彗星は、2"のシーイングで、4".5のコマが見えた。
小惑星センターは、この天体を、2021年12月8日MPEC 2021-X157に発表したとき不注意にA/2021 X1と
表示してしまった。
小惑星センターのPCCP webpageに公表後、この半年間多くの位置観測者が彗星状であると指摘し続け
ていた。
C. Jacques (Belo Horizonte, MG, ブラジル, 2021年12月10.15日UT, 30-秒露出120枚のスタック, 
0.45-m反射望遠鏡, SONEAR天文台, Oliveira: 4".4のシーイングで集光しているが 8".6 x 5".7 と
長く伸びたコマ(p.a.317°に伸びている)が見えるが尾はない。2021年12月30.6日, 60-秒露出40枚の
スタック, 0.5-m 反射望遠鏡, Siding Spring, 遠隔操作: 2".6のシーイングで6".5の集光したコマ
が見えるがやはり尾はない)、池村俊彦氏と佐藤裕久 (2022年3月8.5日, 60-秒露出8枚のスタック, 
0.38-m反射望遠鏡, 新城観測所, 愛知県; 中程度に集光した約9"のコマが見えるが尾はない。全光度
は17.2等であった)や佐藤英貴氏(東京都文京区, 3月22.4日UT, 60-秒露出6枚のスタック,0.51-m f/6.8 
アストログラフ, Siding Spring, NSW, オーストラリア, 遠隔操作: 強く集光した10"のコマが見える
が尾はなかった。6".5の円形範囲で測定した光度は17.3等であった)らCCD位置観測者によって彗星状と
観測された。

彗星機能の報告は次のとおり、

OC   Date        Reporter           Coma    Tail    PA          Exposures
W95  2021-12-12  A. Maury           7"
568  2021-12-29  K. Meech           6"
Q62  2021-12-30  C. Jacques         6".5                       40x60s
Q11  2022-03-08  H. Sato            9"                          8x60s
Q62  2022-03-22  H. Sato           10"                          6x60s
W94  2022-03-24  A. Maury           7"       5"     90 
Y28  2022-03-31  M. Santana         3".8     4".3   214-234    13x240s
M21  2022-05-02  A. Aletti          6"      10"     100

発見位置は次のとおり、

     2021 UT             R.A. (2000) Decl.       Mag.   Observer
     Dec.  2.32400    8 25 15.77   -22 38 26.1   19.0   Maury
           2.32983    8 25 15.49   -22 38 28.1   18.8     "
           2.33560    8 25 15.23   -22 38 30.6   19.6     "

K. Ly (El Monte, CA, 米国)の報告によると、2021年10月22日、10月31日、11月4日に、Palomar 1.2-m 
f/2.4 Schmidt望遠鏡で得た"Zwicky Transient Facility" (ZTF)の発見前の観測を確認した。

     2021 UT             R.A. (2000) Decl.       Mag.
     Oct. 22.48151    8 42 47.83   -18 23 28.4   20.6
          22.51816    8 42 47.51   -18 23 42.3   20.9
          31.44827    8 41 03.82   -19 20 32.8   20.4
     Nov.  4.46202    8 39 56.46   -19 46 26.8   19.8

MPCの双曲線軌道要素、位置推算表は次のとおり、

Orbital elements:
    C/2021 X1 (Maury-Attard)                                                    
Epoch 2023 May 16.0 TT = JDT 2460080.5                                          
T 2023 May 27.42248 TT                                  Rudenko                 
q   3.2337690            (2000.0)            P               Q                  
z  -0.0002812      Peri.  334.61636     +0.82763998     +0.54875708             
 +/-0.0000071      Node    10.58690     +0.55830300     -0.78342695             
e   1.0009093      Incl.  140.11933     -0.05753106     +0.29173255             
From 281 observations 2021 Oct. 22-2022 Apr. 17, mean residual 0".5.            
                                                                                
    C/2021 X1 (Maury-Attard)                                                    
Epoch 2022 Jan. 21.0 TT = JDT 2459600.5                                         
T 2023 May 27.35433 TT                                  Rudenko                 
q   3.2345568            (2000.0)            P               Q                  
z  -0.0000762      Peri.  334.59125     +0.82746445     +0.54904093             
 +/-0.0000071      Node    10.57913     +0.55854655     -0.78325771             
e   1.0002464      Incl.  140.12098     -0.05769173     +0.29165289             
From 281 observations 2021 Oct. 22-2022 Apr. 17, mean residual 0".5.            
                                                                                
Ephemeris:
Date    TT    R. A. (2000) Decl.     Delta      r    Elong.  Phase   m1
2022 04 05    06 20 56.0 -15 56 06   5.0121  4.9989    83.5    11.5  17.5
...
2022 04 20    06 17 30.2 -14 03 28   5.1372  4.9024    71.0    11.2  17.5
...
2022 04 28    06 16 52.1 -13 10 06   5.1973  4.8512    64.6    10.8  17.4
...
2022 05 04    06 16 51.8 -12 33 35   5.2374  4.8130    60.0    10.5  17.4
2022 05 05    06 16 54.0 -12 27 48   5.2436  4.8067    59.2    10.4  17.4
2022 05 06    06 16 56.6 -12 22 06   5.2497  4.8003    58.5    10.3  17.4
...
2022 05 12    06 17 24.4 -11 49 50   5.2828  4.7624    54.2     9.9  17.4
...
2022 05 20    06 18 29.0 -11 11 57   5.3172  4.7120    48.8     9.3  17.4
...
2022 06 04    06 21 39.0 -10 17 06   5.3479  4.6184    40.1     8.1  17.3

(MPEC 2022-J33、CBET 5119、oaa-comet 3036)

スレッド表示 | 新しいものから 前のトピック | 次のトピック | トップ

投稿するにはまず登録を
 
© 1999 Tsutomu Seki.